Temperature
17 17 17 17 17 17 17 17 17 17 17 17 17 17 17 17 17 17 17 17 17 17 17 17 17 18 18 18 18 18 18 18 18 17 17 17 17 17 17 17 17 17 17
17 17 17 16 16 16 16 16 16 16 16 16 16 16 16 16 17 17 17 17 17 17 17 17 17 17 17 18 18 18 18 18 18 17 17 17 17 17 17 17 17 17 17
16 16 16 16 16 16 16 16 16 16 16 16 16 16 16 16 16 16 16 16 17 16 16 17 17 17 17 17 17 17 17 18 17 17 17 17 17 17 17 17 17 17 17
16 16 15 15 15 15 15 15 16 16 16 16 16 16 16 16 16 16 16 16 16 16 16 16 16 16 17 17 17 17 17 17 17 17 17 17 17 17 17 17 17 17 17
15 15 15 15 15 15 15 15 15 15 15 15 15 16 16 16 16 16 16 16 16 16 16 16 16 16 16 16 17 17 17 17 17 17 17 17 17 17 17 17 17 17 17
15 15 15 14 14 14 14 14 14 14 15 15 15 15 16 16 16 16 16 16 16 16 16 16 16 16 16 16 16 17 17 17 17 17 17 17 17 17 17 17 17 17 17
15 15 14 14 14 14 14 14 14 14 14 14 15 15 16 16 16 16 16 16 17 16 16 16 16 16 16 16 16 16 16 16 17 17 17 17 17 17 17 17 17 17 17
15 14 14 14 14 14 13 13 13 13 14 14 14 14 15 15 16 16 16 16 16 16 16 16 16 16 16 16 16 16 16 16 16 16 16 16 16 17 17 17 17 17 17
14 14 14 14 14 13 13 13 13 13 13 13 13 13 13 14 14 15 15 15 15 16 16 16 16 16 16 16 16 16 16 16 16 16 16 16 16 16 16 17 17 17 17
14 14 14 13 13 13 13 13 13 13 13 13 13 13 13 13 13 14 15 15 15 15 15 16 16 16 16 16 16 16 16 16 16 16 16 16 16 16 16 16 16 16 17
14 14 13 13 13 13 13 13 13 12 12 12 12 13 13 13 13 13 13 14 15 15 15 15 15 15 15 16 16 16 16 16 16 16 16 16 16 16 16 16 16 16 16
14 14 13 13 13 13 13 13 12 12 12 12 12 12 12 12 12 12 12 13 14 15 15 15 15 15 15 15 15 16 16 16 16 16 15 15 15 16 16 16 16 16 16
14 13 13 13 13 13 12 12 12 12 12 12 12 12 12 12 12 12 12 12 13 14 14 15 15 15 15 15 15 15 15 15 15 15 15 15 15 15 15 16 16 16 16
14 13 13 13 13 12 12 12 12 12 12 12 11 11 11 11 11 11 11 11 12 12 13 14 14 14 14 14 15 15 15 15 15 15 15 15 15 15 15 15 15 16 16
14 13 13 13 12 12 12 12 12 12 12 11 11 11 11 11 11 11 11 11 11 11 12 13 13 14 14 14 14 14 14 14 14 15 15 15 15 15 15 15 15 15 15
14 13 13 13 13 12 12 12 12 12 11 11 11 11 11 11 11 11 11 11 11 11 11 12 12 13 13 13 13 13 13 14 14 14 14 14 15 15 15 15 15 15 15
14 14 13 13 13 12 12 12 12 11 11 11 11 11 11 11 11 11 11 11 11 11 11 11 11 12 12 12 13 13 13 13 13 14 14 14 14 14 15 15 15 15 15
14 14 13 13 13 12 12 12 11 11 11 11 11 11 11 11 11 10 10 10 10 10 10 11 11 11 12 12 12 12 13 13 13 13 14 14 14 14 14 14 14 15 15
15 14 14 13 13 12 12 12 11 11 11 11 11 11 11 10 10 10 10 10 10 10 10 10 10 11 11 11 12 12 12 13 13 13 13 13 13 14 14 14 14 14 15
15 15 15 14 14 13 12 12 12 11 11 11 11 10 10 10 10 10 10 10 10 10 10 10 10 10 10 11 11 11 12 12 12 13 13 13 13 13 13 14 14 14 14
16 15 15 15 14 14 13 13 12 12 11 11 10 10 10 10 10 10 10 10 10 9 9 9 10 10 10 10 10 10 11 11 12 12 12 13 13 13 13 14 14 14 14
16 16 15 15 14 14 13 13 12 11 11 11 10 10 10 10 10 10 10 9 9 9 9 9 9 9 10 10 10 10 10 10 11 11 12 12 12 13 13 13 13 14 14
16 16 15 15 15 14 13 13 12 12 11 11 10 10 10 10 10 10 10 9 9 9 9 9 9 9 9 10 10 10 10 10 10 11 11 11 12 12 13 13 13 13 14
16 16 15 15 15 15 14 13 12 12 11 11 11 10 10 10 10 10 9 9 9 9 9 9 9 9 9 9 9 9 9 9 10 10 10 10 11 12 12 13 13 13 13
16 16 16 15 15 15 14 13 12 12 11 11 11 10 10 10 10 9 9 9 9 9 9 9 9 9 9 9 9 9 9 9 9 10 10 10 11 12 12 13 13 13 13
16 16 15 15 15 14 14 13 12 12 11 11 11 11 10 10 10 9 9 9 9 9 9 9 9 9 9 9 9 8 8 8 8 9 10 10 10 11 11 12 13 13 13
Wind_Speed
4 5 6 6 5 2 1 1 2 3 3 4 5 5 6 7 8 9 10 16 21 22 21 20 20 20 20 20 20 20 19 19 19 20 20 20 20 19 18 17 16 16 16
7 5 5 5 6 5 2 1 1 1 1 1 3 3 4 6 7 8 9 13 19 22 22 21 21 21 21 21 21 21 21 21 20 21 21 21 21 21 20 19 18 17 17
8 6 4 4 6 8 6 4 3 2 1 1 2 3 3 4 6 7 9 11 14 19 22 23 23 22 22 21 22 22 22 22 22 22 22 23 23 23 22 21 20 19 19
10 8 4 4 8 9 7 3 4 3 3 2 2 3 2 3 5 7 8 10 13 15 19 22 23 23 23 22 22 23 23 24 24 24 24 24 24 24 24 23 22 21 21
10 8 5 6 9 7 5 4 4 3 3 4 4 3 3 3 4 6 6 10 13 15 16 20 23 24 24 24 24 23 24 25 25 25 25 25 25 25 25 25 24 23 23
9 8 6 7 8 5 5 5 4 4 3 3 4 4 4 4 3 4 6 8 11 14 16 17 18 21 24 24 24 24 24 25 25 26 26 26 26 26 27 26 26 25 24
8 7 4 5 5 5 5 5 4 5 4 4 4 5 5 4 4 4 3 3 5 9 12 14 15 16 17 23 26 26 25 25 26 27 28 28 28 28 28 28 27 27 26
7 6 4 3 4 4 6 6 5 3 4 4 3 3 4 6 5 4 3 2 3 3 5 10 12 14 15 14 18 24 26 26 26 26 28 29 29 29 29 29 29 28 28
6 7 6 4 3 4 4 4 4 4 3 3 3 3 2 2 4 4 4 5 5 3 3 4 8 12 14 14 15 19 24 26 27 27 28 29 30 31 31 31 30 30 29
6 7 7 5 3 3 3 2 3 2 3 3 3 2 1 3 1 4 5 5 6 5 5 4 4 6 9 12 14 17 20 23 26 28 28 29 30 31 32 32 32 31 31
3 7 7 5 3 2 2 2 2 2 1 1 1 2 2 1 1 1 4 5 5 4 4 4 3 5 7 10 12 15 19 21 23 25 26 28 29 30 32 33 33 32 32
1 5 7 5 4 3 2 1 0 1 1 1 1 0 0 0 1 1 2 4 5 5 5 4 3 4 7 8 11 13 16 18 20 21 22 23 26 29 31 32 33 33 33
2 5 5 4 3 4 3 2 1 2 1 1 2 2 2 2 2 2 2 3 3 4 4 4 3 5 7 7 9 12 14 16 17 18 19 21 22 24 27 31 33 33 33
4 5 5 5 5 5 4 3 2 3 2 2 3 3 2 3 2 2 2 2 3 3 3 5 4 3 6 8 8 9 10 12 13 15 17 19 20 22 24 26 29 32 33
4 6 6 6 6 5 5 4 4 4 4 4 4 4 3 3 3 2 2 3 2 2 4 4 4 4 7 8 9 8 8 10 12 14 16 17 19 19 21 23 25 29 31
5 6 6 6 6 6 6 5 5 5 5 5 4 5 4 4 4 3 3 2 3 4 4 3 4 4 5 7 10 9 10 12 13 14 15 17 17 18 19 20 21 24 27
6 7 7 7 7 7 6 6 7 7 7 6 6 6 6 5 4 4 3 3 3 3 4 5 3 4 4 6 7 9 11 11 12 14 15 16 16 17 18 19 20 21 24
7 7 7 7 7 7 7 7 7 7 7 8 8 7 7 6 5 5 4 4 4 4 5 6 4 3 4 5 6 6 7 10 10 13 15 16 17 17 18 18 20 21 23
8 7 7 8 8 8 7 7 8 7 8 8 8 8 8 7 7 5 5 5 5 5 4 5 5 3 4 4 5 5 6 5 8 11 14 16 18 18 18 18 19 21 22
8 8 8 8 8 8 8 8 8 8 8 7 7 8 8 8 8 8 6 7 6 6 5 5 5 4 4 4 3 3 5 4 5 6 8 11 13 15 16 18 19 20 21
9 9 8 8 8 7 7 8 7 7 7 7 7 7 8 10 11 9 7 7 7 6 5 5 5 4 4 3 3 2 3 4 4 3 3 4 4 5 8 13 17 18 20
9 8 8 8 8 7 10 12 9 7 7 7 7 7 8 9 11 13 13 12 10 9 8 6 6 6 7 5 4 3 3 3 4 3 3 5 3 5 5 9 14 17 19
9 8 8 8 8 10 12 13 14 9 8 8 8 7 8 8 9 7 9 10 10 13 13 9 9 9 8 7 5 5 5 5 5 4 2 5 4 5 5 11 15 17 18
8 8 8 9 8 10 13 14 14 10 8 9 9 9 9 9 9 9 8 8 8 9 10 9 9 10 10 9 8 7 6 5 5 4 3 4 4 5 5 6 13 17 19
8 8 7 9 9 10 13 15 13 7 8 10 9 9 10 10 13 14 10 9 9 9 11 14 14 13 15 14 9 4 4 4 5 5 3 4 4 4 4 5 7 13 16
10 9 9 9 10 10 13 15 14 6 8 8 8 9 13 13 14 14 9 9 10 10 8 7 8 9 9 10 12 9 8 7 6 5 5 5 4 3 4 3 3 4 8
Wind_Direction
41 25 17 17 11 2 244 223 228 225 222 223 225 222 218 214 216 218 223 217 206 203 202 201 200 199 199 198 198 196 196 194 191 188 185 182 180 179 178 176 174 172 170
52 35 24 20 14 11 359 269 253 239 244 247 256 245 232 226 220 219 227 222 215 211 209 209 208 206 205 204 203 202 201 200 198 195 192 189 186 185 184 183 182 181 179
60 49 31 13 8 15 21 28 24 35 27 341 287 270 249 242 234 229 226 222 221 218 218 217 216 212 211 210 209 208 206 204 202 199 197 195 192 190 189 188 188 187 186
66 56 39 17 18 30 31 41 42 44 31 13 322 294 282 273 261 248 235 226 223 224 224 224 223 220 218 217 216 215 212 209 205 203 202 200 198 196 194 193 193 192 192
72 66 51 31 32 34 24 27 40 43 26 355 315 298 296 279 267 263 245 233 224 223 224 228 227 226 225 224 223 221 219 215 211 207 205 204 203 201 199 198 197 197 197
82 76 62 41 38 35 22 19 26 29 27 347 333 332 306 290 281 264 253 245 230 225 224 227 229 231 229 227 227 226 225 221 217 213 210 208 207 205 204 203 202 201 201
101 89 73 53 45 42 28 21 24 22 9 4 16 344 332 329 317 293 268 251 238 231 223 223 223 225 228 230 230 228 228 226 223 219 216 212 210 208 207 206 206 205 204
131 116 101 82 60 48 34 34 41 35 5 20 36 22 351 342 338 341 345 327 278 249 228 226 222 221 222 223 228 230 230 230 229 225 221 218 214 211 209 209 209 208 208
153 136 125 109 82 72 53 47 55 64 23 358 35 81 60 317 313 324 348 3 349 322 283 253 229 223 221 220 225 232 233 233 232 231 229 224 220 215 211 210 210 210 210
173 157 142 127 109 95 78 50 72 72 68 14 360 36 166 199 257 318 327 345 346 341 322 300 269 240 227 223 225 231 236 237 236 235 234 230 225 219 215 213 212 212 212
192 171 155 144 131 121 115 82 58 52 76 83 349 342 354 12 88 148 312 328 335 331 326 304 285 272 250 234 228 232 235 238 237 237 237 234 230 225 220 217 216 215 214
181 173 164 160 157 156 165 173 141 16 355 304 273 275 87 353 324 354 282 306 312 307 315 320 313 292 274 253 241 238 236 236 237 239 239 238 237 232 226 222 220 219 218
178 183 170 175 181 191 198 197 214 266 281 274 261 252 230 224 218 206 231 278 295 300 316 321 322 320 306 283 259 251 244 236 234 236 238 239 240 239 234 228 224 222 221
195 191 182 190 201 205 211 201 213 243 239 256 265 253 248 257 229 210 212 242 310 313 315 301 311 320 330 314 287 271 261 252 242 238 238 239 241 242 238 233 228 225 222
190 182 188 197 209 214 218 214 225 241 245 251 255 254 248 252 245 232 210 185 192 282 295 293 309 319 328 321 307 286 270 265 257 248 243 241 242 243 241 235 231 227 224
186 183 196 205 215 222 223 220 231 238 239 250 244 249 254 252 255 248 232 210 184 196 252 275 276 289 311 317 316 296 282 277 267 257 250 245 242 242 243 239 234 230 227
204 202 206 210 217 224 225 222 231 236 238 248 251 246 252 252 251 254 248 241 225 199 245 273 267 287 302 306 310 302 289 275 271 267 257 250 244 240 239 239 236 233 230
212 210 209 212 220 224 222 219 229 232 229 236 243 243 250 253 248 247 244 246 247 232 230 269 283 293 292 293 293 296 289 282 269 270 262 254 246 238 236 236 235 233 231
213 214 210 215 222 223 220 221 222 228 228 230 232 232 240 240 247 246 243 244 246 255 233 244 268 272 282 292 305 302 297 290 283 275 264 256 249 242 239 237 235 233 231
211 215 216 219 221 222 222 222 222 226 231 233 231 229 232 228 235 241 244 241 240 249 248 248 260 270 275 289 302 307 316 313 298 289 270 259 254 249 244 240 237 235 232
216 215 218 223 224 223 225 221 220 224 226 232 235 235 236 237 237 235 238 234 233 236 239 243 256 268 272 284 280 284 296 306 301 297 308 289 267 255 249 245 241 238 235
218 216 219 222 225 228 225 217 207 212 214 220 233 241 249 255 256 253 252 246 230 226 228 232 242 245 254 250 252 259 275 313 305 305 332 297 271 263 251 242 241 238 235
216 219 224 223 228 232 231 227 220 210 216 222 228 237 252 254 253 251 261 266 259 245 229 221 230 239 244 239 235 252 248 242 248 268 307 287 281 269 258 249 242 238 238
213 219 225 226 231 237 233 232 229 219 220 227 228 229 236 250 255 247 250 257 255 253 242 231 228 236 238 236 225 233 241 250 259 263 234 262 276 269 268 255 244 234 233
215 217 219 223 229 241 239 236 228 215 226 236 236 234 233 244 251 250 247 251 257 259 255 241 232 235 240 242 231 228 239 245 267 269 227 231 261 269 267 260 250 237 228
218 220 226 225 227 237 240 236 224 211 228 240 242 240 238 242 250 251 240 238 249 255 251 253 246 249 248 250 243 222 221 229 241 260 239 214 243 245 272 268 253 235 226
Height
1554 1554 1553 1553 1553 1554 1554 1555 1555 1556 1557 1558 1559 1560 1561 1563 1564 1565 1566 1568 1569 1571 1572 1574 1576 1577 1579 1580 1582 1583 1584 1586 1588 1589 1591 1593 1595 1596 1598 1600 1601 1603 1604
1553 1552 1552 1552 1552 1552 1552 1553 1553 1554 1555 1556 1556 1557 1558 1560 1561 1562 1563 1565 1566 1568 1570 1571 1573 1575 1577 1578 1580 1581 1583 1584 1586 1588 1590 1592 1593 1595 1597 1599 1601 1602 1604
1552 1551 1551 1551 1551 1551 1551 1551 1552 1552 1553 1553 1554 1555 1556 1557 1558 1559 1560 1561 1563 1564 1566 1568 1570 1572 1574 1576 1577 1579 1581 1582 1584 1586 1588 1590 1592 1594 1596 1598 1600 1601 1603
1552 1551 1550 1550 1550 1550 1550 1550 1550 1551 1551 1551 1552 1553 1553 1554 1555 1556 1557 1558 1559 1561 1562 1564 1566 1568 1570 1572 1574 1576 1578 1580 1582 1583 1585 1588 1590 1592 1594 1596 1598 1600 1602
1551 1550 1549 1549 1548 1548 1548 1548 1549 1549 1549 1550 1550 1550 1551 1551 1552 1553 1553 1554 1555 1556 1558 1560 1561 1563 1565 1567 1569 1572 1574 1576 1578 1580 1582 1584 1587 1589 1591 1594 1596 1598 1600
1551 1550 1549 1548 1547 1547 1547 1547 1547 1548 1548 1548 1548 1548 1548 1549 1549 1549 1550 1551 1551 1552 1554 1555 1557 1559 1560 1562 1565 1567 1569 1571 1574 1576 1579 1581 1583 1586 1588 1591 1593 1595 1597
1550 1549 1548 1547 1546 1545 1545 1545 1545 1546 1546 1545 1546 1545 1546 1546 1547 1547 1547 1547 1548 1549 1550 1551 1552 1554 1556 1558 1560 1562 1564 1566 1569 1571 1574 1577 1579 1582 1584 1587 1589 1592 1594
1550 1548 1547 1546 1545 1545 1544 1544 1544 1544 1544 1544 1544 1544 1544 1545 1545 1545 1545 1545 1545 1546 1546 1548 1548 1549 1551 1553 1555 1557 1559 1561 1563 1566 1568 1571 1574 1577 1580 1582 1585 1588 1590
1549 1548 1547 1546 1545 1544 1544 1543 1543 1543 1543 1543 1543 1544 1544 1543 1543 1543 1543 1543 1543 1543 1543 1544 1545 1546 1547 1549 1550 1552 1554 1556 1558 1560 1562 1565 1568 1571 1574 1577 1580 1583 1586
1548 1548 1547 1546 1545 1544 1543 1543 1542 1542 1542 1542 1542 1543 1544 1543 1543 1542 1542 1542 1541 1541 1541 1541 1542 1542 1543 1545 1546 1547 1549 1550 1552 1554 1556 1558 1561 1564 1568 1571 1574 1577 1580
1547 1546 1546 1545 1544 1544 1543 1542 1541 1541 1540 1540 1541 1541 1542 1542 1542 1541 1539 1539 1539 1540 1539 1539 1539 1539 1540 1541 1542 1543 1544 1545 1546 1548 1549 1552 1554 1557 1560 1564 1567 1571 1574
1545 1545 1545 1544 1543 1543 1542 1541 1540 1539 1539 1539 1539 1539 1539 1540 1539 1539 1538 1537 1536 1537 1537 1537 1537 1537 1537 1537 1538 1538 1539 1540 1541 1542 1543 1545 1547 1550 1553 1556 1560 1564 1567
1543 1543 1543 1543 1542 1541 1540 1540 1539 1538 1538 1537 1537 1537 1537 1537 1537 1537 1536 1535 1534 1534 1534 1535 1535 1535 1534 1534 1534 1534 1535 1535 1536 1536 1537 1539 1540 1542 1545 1549 1552 1556 1560
1541 1541 1541 1541 1540 1540 1539 1538 1537 1537 1536 1536 1535 1535 1535 1535 1535 1535 1534 1533 1531 1531 1530 1531 1531 1531 1531 1531 1530 1530 1530 1531 1531 1531 1532 1533 1534 1536 1538 1541 1544 1548 1552
1539 1539 1539 1538 1538 1537 1537 1536 1535 1535 1534 1533 1533 1532 1532 1532 1532 1532 1531 1531 1531 1528 1526 1527 1527 1528 1528 1527 1527 1526 1526 1526 1526 1526 1527 1527 1528 1530 1531 1534 1537 1540 1544
1536 1536 1536 1536 1535 1535 1534 1533 1533 1532 1531 1531 1530 1529 1528 1528 1528 1528 1528 1527 1527 1526 1523 1523 1523 1524 1524 1524 1523 1523 1522 1522 1522 1522 1522 1522 1522 1523 1525 1527 1529 1533 1536
1533 1533 1533 1532 1532 1531 1530 1530 1529 1528 1528 1527 1526 1525 1525 1524 1523 1523 1523 1523 1523 1522 1520 1518 1519 1519 1519 1519 1519 1519 1518 1518 1518 1517 1517 1517 1517 1517 1518 1520 1523 1525 1528
1530 1529 1529 1528 1528 1527 1526 1525 1525 1524 1523 1522 1522 1521 1520 1520 1519 1518 1518 1517 1517 1517 1516 1513 1513 1514 1514 1514 1513 1513 1513 1513 1512 1512 1512 1512 1512 1512 1513 1514 1516 1519 1521
1526 1525 1525 1524 1523 1522 1522 1521 1520 1519 1518 1518 1517 1516 1515 1515 1514 1513 1513 1512 1512 1512 1511 1509 1508 1508 1508 1508 1508 1507 1507 1507 1507 1507 1506 1506 1506 1507 1507 1508 1510 1512 1515
1522 1521 1520 1520 1519 1518 1517 1516 1515 1514 1513 1513 1512 1511 1510 1510 1509 1508 1507 1506 1506 1506 1506 1505 1504 1503 1503 1503 1503 1502 1501 1501 1501 1501 1501 1501 1501 1501 1501 1502 1504 1505 1508
1518 1517 1516 1515 1514 1513 1512 1511 1510 1509 1508 1507 1506 1506 1505 1504 1503 1502 1501 1500 1500 1500 1500 1499 1499 1498 1498 1498 1498 1497 1496 1496 1496 1496 1495 1495 1495 1495 1495 1496 1497 1499 1501
1513 1512 1511 1510 1509 1508 1507 1505 1504 1503 1502 1501 1500 1499 1499 1498 1497 1496 1495 1495 1494 1494 1493 1494 1493 1493 1493 1493 1493 1493 1492 1491 1491 1492 1491 1490 1490 1490 1490 1490 1491 1492 1494
1508 1507 1506 1505 1504 1502 1501 1500 1498 1497 1496 1495 1494 1493 1492 1491 1490 1489 1489 1489 1488 1488 1488 1488 1487 1487 1487 1488 1488 1487 1487 1486 1485 1486 1486 1484 1485 1484 1485 1485 1485 1486 1488
1502 1502 1501 1500 1498 1497 1495 1494 1492 1491 1489 1488 1488 1487 1486 1485 1484 1483 1482 1482 1482 1482 1482 1482 1481 1481 1482 1482 1482 1482 1481 1480 1479 1481 1481 1479 1479 1479 1479 1479 1480 1480 1481
1496 1495 1494 1493 1492 1491 1489 1488 1486 1484 1483 1482 1481 1480 1479 1479 1478 1478 1477 1476 1475 1475 1476 1476 1475 1475 1475 1475 1476 1475 1475 1474 1472 1473 1475 1474 1473 1473 1473 1473 1474 1474 1475
1489 1489 1488 1487 1485 1484 1483 1481 1480 1478 1476 1475 1475 1474 1473 1472 1472 1471 1471 1470 1469 1469 1469 1469 1469 1468 1468 1468 1469 1469 1468 1468 1467 1466 1468 1469 1468 1469 1467 1467 1467 1468 1469